Tracking 31027 objects as of 19-Jul-2025
HD Live streaming from Space Station
objects crossing your sky now

STARLINK-5088

Track STARLINK-5088 now!
10-day predictions
STARLINK-5088 is classified as:


NORAD ID: 54000
Int'l Code: 2022-125AN
Perigee: 546.2 km
Apogee: 547.6 km
Inclination: 53.2 °
Period: 95.4 minutes
Semi major axis: 6917 km
RCS: Unknown
Launch date: October 5, 2022
Source: United States (US)
Launch site: AIR FORCE WESTERN TEST RANGE (AFWTR)
Your satellite tracking list
DELTA 1 DEB
Track 1 satellite(s)




NASA's NSSDC Master Catalog

Two Line Element Set (TLE):
1 54000U 22125AN  25199.95119587 -.00000104  00000-0  11565-4 0  9990
2 54000  53.2174 173.6017 0001002  72.7530 287.3571 15.08835906154317
Source of the keplerian elements: AFSPC